| time (UTC) | temp F | wind direction | speed MPH | gust MPH | rain 1hr in | rain 24hr in | rain mn in | humidity % | barometer mb |
| 20260506172034 | 70 | 176 | 9.0 | 24.0 | 0.00 | 0.00 | 0.00 | 61 | 1012.5 |
| 20260506171031 | 71 | 224 | 6.0 | 22.0 | 0.00 | 0.00 | 0.00 | 60 | 1012.4 |
| 20260506170531 | 71 | 200 | 3.0 | 21.0 | 0.00 | 0.00 | 0.00 | 59 | 1012.4 |
| 20260506170030 | 71 | 180 | 12.0 | 20.0 | 0.00 | 0.00 | 0.00 | 60 | 1012.4 |
| 20260506165529 | 71 | 184 | 11.0 | 24.0 | 0.00 | 0.00 | 0.00 | 59 | 1012.1 |
| 20260506165028 | 71 | 177 | 14.0 | 24.0 | 0.00 | 0.00 | 0.00 | 60 | 1012.6 |
| 20260506164028 | 71 | 179 | 9.0 | 26.0 | 0.00 | 0.00 | 0.00 | 62 | 1012.5 |
| 20260506163527 | 71 | 184 | 11.0 | 22.0 | 0.00 | 0.00 | 0.00 | 61 | 1012.2 |
| 20260506163026 | 71 | 183 | 8.0 | 18.0 | 0.00 | 0.00 | 0.00 | 62 | 1012.7 |
| 20260506162525 | 70 | 267 | 8.0 | 21.0 | 0.00 | 0.00 | 0.00 | 63 | 1012.6 |
| 20260506162039 | 69 | 202 | 14.0 | 23.0 | 0.00 | 0.00 | 0.00 | 65 | 1012.8 |
| 20260506161522 | 70 | 180 | 11.0 | 23.0 | 0.00 | 0.00 | 0.00 | 63 | 1012.9 |
| 20260506161022 | 70 | 155 | 9.0 | 23.0 | 0.00 | 0.00 | 0.00 | 62 | 1012.9 |
| 20260506160522 | 70 | 242 | 6.0 | 24.0 | 0.00 | 0.00 | 0.00 | 63 | 1012.9 |
| 20260506160035 | 70 | 164 | 7.0 | 24.0 | 0.00 | 0.00 | 0.00 | 61 | 1012.8 |
| 20260506155520 | 70 | 185 | 12.0 | 24.0 | 0.00 | 0.00 | 0.00 | 64 | 1013.1 |
| 20260506154019 | 71 | 176 | 17.0 | 29.0 | 0.00 | 0.00 | 0.00 | 62 | 1012.9 |
| 20260506153519 | 71 | 139 | 7.0 | 29.0 | 0.00 | 0.00 | 0.00 | 61 | 1012.9 |
| 20260506152508 | 70 | 158 | 10.0 | 22.0 | 0.00 | 0.00 | 0.00 | 63 | 1013.2 |
| 20260506151004 | 70 | 151 | 15.0 | 23.0 | 0.00 | 0.00 | 0.00 | 62 | 1012.9 |
| 20260506150505 | 69 | 188 | 5.0 | 23.0 | 0.00 | 0.00 | 0.00 | 65 | 1012.6 |
| 20260506150004 | 69 | 179 | 11.0 | 20.0 | 0.00 | 0.00 | 0.00 | 64 | 1012.8 |
| 20260506145503 | 69 | 182 | 8.0 | 20.0 | 0.00 | 0.00 | 0.00 | 64 | 1012.8 |
| 20260506144959 | 69 | 174 | 10.0 | 19.0 | 0.00 | 0.00 | 0.00 | 64 | 1012.7 |
| 20260506144457 | 70 | 240 | 11.0 | 21.0 | 0.00 | 0.00 | 0.00 | 64 | 1012.9 |
| 20260506143957 | 69 | 164 | 15.0 | 24.0 | 0.00 | 0.00 | 0.00 | 65 | 1013.0 |
| 20260506143457 | 69 | 256 | 3.0 | 24.0 | 0.00 | 0.00 | 0.00 | 67 | 1013.0 |
| 20260506142956 | 69 | 185 | 6.0 | 16.0 | 0.00 | 0.00 | 0.00 | 66 | 1012.9 |
| 20260506142454 | 68 | 183 | 4.0 | 20.0 | 0.00 | 0.00 | 0.00 | 67 | 1012.8 |
| 20260506141954 | 68 | 157 | 10.0 | 20.0 | 0.00 | 0.00 | 0.00 | 68 | 1012.7 |
| 20260506140952 | 67 | 162 | 6.0 | 15.0 | 0.00 | 0.00 | 0.00 | 71 | 1012.8 |
| 20260506135945 | 66 | 155 | 10.0 | 14.0 | 0.00 | 0.00 | 0.00 | 71 | 1013.0 |
| 20260506134942 | 65 | 217 | 7.0 | 18.0 | 0.00 | 0.00 | 0.00 | 73 | 1013.2 |
| 20260506134441 | 65 | 173 | 9.0 | 18.0 | 0.00 | 0.00 | 0.00 | 74 | 1013.2 |
| 20260506133438 | 64 | 213 | 5.0 | 16.0 | 0.00 | 0.00 | 0.00 | 74 | 1013.4 |
| 20260506132937 | 64 | 163 | 5.0 | 16.0 | 0.00 | 0.00 | 0.00 | 75 | 1013.1 |
| 20260506132434 | 64 | 195 | 6.0 | 14.0 | 0.00 | 0.00 | 0.00 | 75 | 1013.1 |
| 20260506131933 | 64 | 194 | 5.0 | 14.0 | 0.00 | 0.00 | 0.00 | 75 | 1013.0 |
| 20260506131431 | 64 | 172 | 6.0 | 13.0 | 0.00 | 0.00 | 0.00 | 75 | 1013.1 |
| 20260506130428 | 64 | 173 | 10.0 | 16.0 | 0.00 | 0.00 | 0.00 | 75 | 1013.0 |
| 20260506125927 | 64 | 138 | 4.0 | 16.0 | 0.00 | 0.00 | 0.00 | 75 | 1013.2 |
| 20260506125426 | 63 | 161 | 10.0 | 19.0 | 0.00 | 0.00 | 0.00 | 75 | 1013.3 |
| 20260506124927 | 63 | 188 | 10.0 | 19.0 | 0.00 | 0.00 | 0.00 | 75 | 1013.1 |
| 20260506124417 | 63 | 193 | 10.0 | 19.0 | 0.00 | 0.00 | 0.00 | 75 | 1013.1 |
| 20260506123916 | 63 | 224 | 6.0 | 13.0 | 0.00 | 0.00 | 0.00 | 76 | 1013.0 |
| 20260506123411 | 63 | 169 | 8.0 | 18.0 | 0.00 | 0.00 | 0.00 | 76 | 1013.1 |
| 20260506122408 | 64 | 155 | 10.0 | 17.0 | 0.00 | 0.00 | 0.00 | 76 | 1013.0 |
| 20260506121908 | 64 | 201 | 10.0 | 17.0 | 0.00 | 0.00 | 0.00 | 75 | 1013.2 |
| 20260506121408 | 64 | 188 | 11.0 | 19.0 | 0.00 | 0.00 | 0.00 | 75 | 1013.2 |
| 20260506120908 | 64 | 179 | 8.0 | 19.0 | 0.00 | 0.00 | 0.00 | 74 | 1012.8 |
| 20260506120408 | 64 | 180 | 4.0 | 16.0 | 0.00 | 0.00 | 0.00 | 75 | 1012.9 |
| 20260506115908 | 64 | 171 | 9.0 | 16.0 | 0.00 | 0.00 | 0.00 | 75 | 1012.7 |
| 20260506114906 | 64 | 212 | 3.0 | 18.0 | 0.00 | 0.00 | 0.00 | 76 | 1012.7 |
| 20260506113859 | 64 | 194 | 3.0 | 19.0 | 0.00 | 0.00 | 0.00 | 76 | 1012.8 |
| 20260506113354 | 64 | 151 | 4.0 | 17.0 | 0.00 | 0.00 | 0.00 | 76 | 1013.0 |
| 20260506112350 | 64 | 174 | 5.0 | 26.0 | 0.00 | 0.00 | 0.00 | 75 | 1013.3 |
| 20260506111850 | 64 | 184 | 8.0 | 17.0 | 0.00 | 0.00 | 0.00 | 75 | 1013.2 |
| 20260506111350 | 64 | 190 | 9.0 | 17.0 | 0.00 | 0.00 | 0.00 | 75 | 1012.9 |
| 20260506110850 | 64 | 183 | 11.0 | 16.0 | 0.00 | 0.00 | 0.00 | 75 | 1013.0 |
| 20260506110349 | 65 | 189 | 9.0 | 16.0 | 0.00 | 0.00 | 0.00 | 74 | 1012.8 |
| 20260506105850 | 65 | 208 | 5.0 | 13.0 | 0.00 | 0.00 | 0.00 | 74 | 1012.9 |
| 20260506105346 | 64 | 241 | 5.0 | 24.0 | 0.00 | 0.00 | 0.00 | 74 | 1012.9 |
| 20260506104846 | 64 | 175 | 11.0 | 24.0 | 0.00 | 0.00 | 0.00 | 75 | 1012.8 |
| 20260506103844 | 64 | 124 | 6.0 | 14.0 | 0.00 | 0.00 | 0.00 | 75 | 1012.8 |
| 20260506103344 | 64 | 188 | 7.0 | 15.0 | 0.00 | 0.00 | 0.00 | 74 | 1012.6 |
| 20260506102844 | 64 | 191 | 7.0 | 15.0 | 0.00 | 0.00 | 0.00 | 76 | 1012.5 |
| 20260506101848 | 64 | 210 | 7.0 | 15.0 | 0.00 | 0.00 | 0.00 | 76 | 1012.4 |
| 20260506100841 | 64 | 231 | 2.0 | 16.0 | 0.00 | 0.00 | 0.00 | 75 | 1012.3 |
| 20260506100341 | 64 | 248 | 10.0 | 16.0 | 0.00 | 0.00 | 0.00 | 75 | 1012.3 |
| 20260506095842 | 64 | 192 | 7.0 | 16.0 | 0.00 | 0.00 | 0.00 | 75 | 1012.1 |
| 20260506095351 | 64 | 258 | 12.0 | 17.0 | 0.00 | 0.00 | 0.00 | 75 | 1012.2 |
| 20260506094840 | 64 | 191 | 9.0 | 21.0 | 0.00 | 0.00 | 0.00 | 74 | 1012.0 |
| 20260506094339 | 64 | 187 | 6.0 | 22.0 | 0.00 | 0.00 | 0.00 | 74 | 1012.1 |
| 20260506093843 | 64 | 202 | 13.0 | 22.0 | 0.00 | 0.00 | 0.00 | 74 | 1011.9 |
| 20260506093338 | 64 | 170 | 2.0 | 18.0 | 0.00 | 0.00 | 0.00 | 74 | 1011.8 |
| 20260506092839 | 64 | 181 | 9.0 | 18.0 | 0.00 | 0.00 | 0.00 | 74 | 1011.9 |
| 20260506092339 | 64 | 194 | 6.0 | 16.0 | 0.00 | 0.00 | 0.00 | 74 | 1011.9 |
| 20260506091839 | 64 | 188 | 4.0 | 18.0 | 0.00 | 0.00 | 0.00 | 74 | 1011.5 |
| 20260506091339 | 64 | 181 | 10.0 | 19.0 | 0.00 | 0.00 | 0.00 | 74 | 1011.7 |
| 20260506090839 | 64 | 250 | 9.0 | 19.0 | 0.00 | 0.00 | 0.00 | 74 | 1011.5 |
| 20260506084338 | 64 | 274 | 6.0 | 20.0 | 0.00 | 0.00 | 0.00 | 73 | 1011.5 |
| 20260506083320 | 64 | 269 | 9.0 | 17.0 | 0.00 | 0.00 | 0.00 | 73 | 1011.6 |
| 20260506081818 | 63 | 283 | 2.0 | 21.0 | 0.00 | 0.00 | 0.00 | 74 | 1011.6 |
| 20260506081320 | 63 | 147 | 5.0 | 18.0 | 0.00 | 0.00 | 0.00 | 74 | 1011.5 |
| 20260506080818 | 63 | 203 | 6.0 | 17.0 | 0.00 | 0.00 | 0.00 | 74 | 1011.5 |
| 20260506080319 | 63 | 187 | 11.0 | 19.0 | 0.00 | 0.00 | 0.00 | 75 | 1011.7 |
| 20260506073310 | 62 | 195 | 7.0 | 16.0 | 0.00 | 0.00 | 0.00 | 76 | 1011.4 |
| 20260506072308 | 61 | 195 | 6.0 | 18.0 | 0.00 | 0.00 | 0.00 | 76 | 1011.5 |
| 20260506071307 | 61 | 203 | 3.0 | 14.0 | 0.00 | 0.00 | 0.00 | 76 | 1011.6 |
| 20260506070805 | 61 | 208 | 4.0 | 12.0 | 0.00 | 0.00 | 0.00 | 76 | 1011.5 |
| 20260506070310 | 61 | 206 | 7.0 | 15.0 | 0.00 | 0.00 | 0.00 | 76 | 1011.5 |
| 20260506062253 | 60 | 183 | 9.0 | 14.0 | 0.00 | 0.00 | 0.00 | 74 | 1011.2 |
| 20260506061751 | 60 | 164 | 9.0 | 15.0 | 0.00 | 0.00 | 0.00 | 73 | 1011.4 |
| 20260506061251 | 60 | 242 | 3.0 | 15.0 | 0.00 | 0.00 | 0.00 | 72 | 1011.4 |
| 20260506060237 | 60 | 276 | 4.0 | 15.0 | 0.00 | 0.00 | 0.00 | 71 | 1011.4 |
| 20260506051233 | 59 | 172 | 6.0 | 19.0 | 0.00 | 0.00 | 0.00 | 71 | 1011.5 |
| 20260506050733 | 60 | 190 | 4.0 | 19.0 | 0.00 | 0.00 | 0.00 | 70 | 1011.5 |
| 20260506050233 | 59 | 168 | 5.0 | 13.0 | 0.00 | 0.00 | 0.00 | 70 | 1011.4 |
| 20260506044220 | 59 | 335 | 3.0 | 11.0 | 0.00 | 0.00 | 0.00 | 70 | 1011.6 |
| 20260506043220 | 58 | 280 | 6.0 | 16.0 | 0.00 | 0.00 | 0.00 | 70 | 1011.5 |
| 20260506042717 | 58 | 259 | 7.0 | 11.0 | 0.00 | 0.00 | 0.00 | 70 | 1011.7 |
| 20260506042216 | 58 | 165 | 7.0 | 11.0 | 0.00 | 0.00 | 0.00 | 71 | 1011.6 |
| 20260506041717 | 58 | 192 | 4.0 | 11.0 | 0.00 | 0.00 | 0.00 | 71 | 1011.7 |
| 20260506040715 | 58 | 235 | 5.0 | 12.0 | 0.00 | 0.00 | 0.00 | 70 | 1011.6 |
| 20260506040228 | 58 | 281 | 4.0 | 11.0 | 0.00 | 0.00 | 0.00 | 70 | 1011.7 |
| 20260506035214 | 58 | 207 | 6.0 | 12.0 | 0.00 | 0.00 | 0.00 | 70 | 1011.7 |
| 20260506034714 | 58 | 264 | 3.0 | 13.0 | 0.00 | 0.00 | 0.00 | 70 | 1011.8 |
| 20260506034213 | 58 | 243 | 10.0 | 13.0 | 0.00 | 0.00 | 0.00 | 70 | 1011.7 |
| 20260506032710 | 58 | 119 | 6.0 | 16.0 | 0.00 | 0.00 | 0.00 | 70 | 1011.7 |
| 20260506032210 | 58 | 237 | 15.0 | 15.0 | 0.00 | 0.00 | 0.00 | 70 | 1011.8 |
| 20260506031710 | 57 | 181 | 6.0 | 12.0 | 0.00 | 0.00 | 0.00 | 71 | 1011.7 |
| 20260506031216 | 57 | 149 | 6.0 | 12.0 | 0.00 | 0.00 | 0.00 | 70 | 1011.9 |
| 20260506030709 | 57 | 168 | 3.0 | 14.0 | 0.00 | 0.00 | 0.00 | 70 | 1012.0 |
| 20260506030210 | 58 | 241 | 9.0 | 15.0 | 0.00 | 0.00 | 0.00 | 69 | 1011.9 |
| 20260506025710 | 58 | 222 | 9.0 | 15.0 | 0.00 | 0.00 | 0.00 | 69 | 1011.7 |
| 20260506025208 | 58 | 171 | 7.0 | 18.0 | 0.00 | 0.00 | 0.00 | 69 | 1011.6 |
| 20260506024708 | 58 | 211 | 3.0 | 18.0 | 0.00 | 0.00 | 0.00 | 68 | 1011.9 |
| 20260506023708 | 59 | 216 | 3.0 | 17.0 | 0.00 | 0.00 | 0.00 | 67 | 1011.6 |
| 20260506023209 | 59 | 261 | 8.0 | 22.0 | 0.00 | 0.00 | 0.00 | 67 | 1011.7 |
| 20260506022708 | 59 | 205 | 8.0 | 22.0 | 0.00 | 0.00 | 0.00 | 66 | 1011.5 |
| 20260506022207 | 59 | 192 | 3.0 | 17.0 | 0.00 | 0.00 | 0.00 | 66 | 1011.4 |
| 20260506021707 | 59 | 253 | 6.0 | 17.0 | 0.00 | 0.00 | 0.00 | 66 | 1011.3 |
| 20260506021204 | 59 | 251 | 10.0 | 20.0 | 0.00 | 0.00 | 0.00 | 65 | 1010.9 |
| 20260506020703 | 59 | 190 | 11.0 | 20.0 | 0.00 | 0.00 | 0.00 | 66 | 1010.8 |
| 20260506020201 | 59 | 170 | 13.0 | 15.0 | 0.00 | 0.00 | 0.00 | 67 | 1011.0 |
| 20260506015659 | 59 | 251 | 7.0 | 14.0 | 0.00 | 0.00 | 0.00 | 67 | 1010.7 |
| 20260506015159 | 59 | 151 | 5.0 | 15.0 | 0.00 | 0.00 | 0.00 | 66 | 1010.8 |
| 20260506014157 | 59 | 225 | 2.0 | 19.0 | 0.00 | 0.00 | 0.00 | 66 | 1010.7 |
| 20260506013657 | 59 | 174 | 8.0 | 16.0 | 0.00 | 0.00 | 0.00 | 66 | 1010.8 |
| 20260506013156 | 60 | 173 | 7.0 | 14.0 | 0.00 | 0.00 | 0.00 | 65 | 1010.7 |
| 20260506012642 | 59 | 194 | 8.0 | 13.0 | 0.00 | 0.00 | 0.00 | 66 | 1010.8 |
| 20260506011640 | 60 | 198 | 3.0 | 13.0 | 0.00 | 0.00 | 0.00 | 65 | 1010.9 |
| 20260506011138 | 60 | 182 | 5.0 | 14.0 | 0.00 | 0.00 | 0.00 | 65 | 1011.0 |
| 20260506010638 | 60 | 239 | 9.0 | 14.0 | 0.00 | 0.00 | 0.00 | 64 | 1010.9 |
| 20260506010138 | 60 | 215 | 6.0 | 19.0 | 0.00 | 0.00 | 0.00 | 64 | 1010.9 |
| 20260506005138 | 61 | 281 | 6.0 | 16.0 | 0.00 | 0.00 | 0.00 | 63 | 1010.9 |
| 20260506004639 | 61 | 230 | 10.0 | 19.0 | 0.00 | 0.00 | 0.00 | 63 | 1010.7 |
| 20260506003636 | 61 | 159 | 11.0 | 21.0 | 0.00 | 0.00 | 0.00 | 63 | 1010.7 |
| 20260506003131 | 61 | 185 | 2.0 | 21.0 | 0.00 | 0.00 | 0.00 | 62 | 1010.7 |
| 20260506002630 | 61 | 188 | 8.0 | 12.0 | 0.00 | 0.00 | 0.00 | 62 | 1010.2 |
| 20260506001624 | 62 | 188 | 9.0 | 17.0 | 0.00 | 0.00 | 0.00 | 62 | 1010.2 |
| 20260506001121 | 61 | 160 | 6.0 | 18.0 | 0.00 | 0.00 | 0.00 | 62 | 1010.1 |
| 20260506000621 | 62 | 169 | 5.0 | 18.0 | 0.00 | 0.00 | 0.00 | 62 | 1010.0 |
| 20260506000120 | 62 | 184 | 9.0 | 18.0 | 0.00 | 0.00 | 0.00 | 61 | 1010.0 |
| 20260505235619 | 62 | 201 | 6.0 | 17.0 | 0.00 | 0.00 | 0.00 | 60 | 1009.7 |
| 20260505235112 | 62 | 173 | 9.0 | 15.0 | 0.00 | 0.00 | 0.00 | 60 | 1009.8 |
| 20260505234609 | 62 | 145 | 8.0 | 16.0 | 0.00 | 0.00 | 0.00 | 60 | 1009.5 |
| 20260505234108 | 63 | 181 | 9.0 | 16.0 | 0.00 | 0.00 | 0.00 | 59 | 1009.4 |
| 20260505233608 | 63 | 152 | 5.0 | 18.0 | 0.00 | 0.00 | 0.00 | 58 | 1009.3 |
| 20260505233108 | 64 | 200 | 4.0 | 18.0 | 0.00 | 0.00 | 0.00 | 58 | 1009.2 |
| 20260505232608 | 63 | 181 | 12.0 | 14.0 | 0.00 | 0.00 | 0.00 | 58 | 1009.1 |
| 20260505231604 | 64 | 240 | 4.0 | 21.0 | 0.00 | 0.00 | 0.00 | 57 | 1009.1 |
| 20260505231101 | 65 | 189 | 9.0 | 21.0 | 0.00 | 0.00 | 0.00 | 56 | 1009.0 |
| 20260505230559 | 65 | 187 | 7.0 | 17.0 | 0.00 | 0.00 | 0.00 | 56 | 1008.9 |
| 20260505230107 | 65 | 200 | 6.0 | 17.0 | 0.00 | 0.00 | 0.00 | 54 | 1008.9 |
| 20260505225055 | 66 | 186 | 7.0 | 18.0 | 0.00 | 0.00 | 0.00 | 53 | 1008.7 |
| 20260505224553 | 66 | 219 | 4.0 | 14.0 | 0.00 | 0.00 | 0.00 | 53 | 1008.6 |
| 20260505224050 | 67 | 166 | 5.0 | 18.0 | 0.00 | 0.00 | 0.00 | 52 | 1008.5 |
| 20260505223049 | 67 | 177 | 9.0 | 17.0 | 0.00 | 0.00 | 0.00 | 51 | 1008.6 |
| 20260505222549 | 68 | 145 | 9.0 | 20.0 | 0.00 | 0.00 | 0.00 | 51 | 1008.7 |
| 20260505222044 | 69 | 150 | 6.0 | 20.0 | 0.00 | 0.00 | 0.00 | 50 | 1008.5 |
| 20260505221544 | 69 | 158 | 12.0 | 18.0 | 0.00 | 0.00 | 0.00 | 48 | 1008.3 |
| 20260505220533 | 70 | 197 | 8.0 | 15.0 | 0.00 | 0.00 | 0.00 | 48 | 1008.0 |
| 20260505215527 | 70 | 166 | 8.0 | 19.0 | 0.00 | 0.00 | 0.00 | 46 | 1007.9 |
| 20260505215023 | 70 | 175 | 11.0 | 26.0 | 0.00 | 0.00 | 0.00 | 46 | 1007.8 |
| 20260505214521 | 70 | 207 | 8.0 | 26.0 | 0.00 | 0.00 | 0.00 | 45 | 1007.6 |
| 20260505214020 | 71 | 187 | 8.0 | 26.0 | 0.00 | 0.00 | 0.00 | 45 | 1007.9 |
| 20260505212014 | 73 | 208 | 4.0 | 20.0 | 0.00 | 0.00 | 0.00 | 44 | 1007.3 |
| 20260505211514 | 73 | 163 | 9.0 | 20.0 | 0.00 | 0.00 | 0.00 | 40 | 1007.4 |
| 20260505210512 | 73 | 193 | 4.0 | 24.0 | 0.00 | 0.00 | 0.00 | 42 | 1007.6 |
| 20260505210013 | 73 | 176 | 10.0 | 24.0 | 0.00 | 0.00 | 0.00 | 40 | 1007.7 |
| 20260505205513 | 73 | 165 | 11.0 | 21.0 | 0.00 | 0.00 | 0.00 | 41 | 1007.4 |
| 20260505205011 | 73 | 180 | 13.0 | 22.0 | 0.00 | 0.00 | 0.00 | 40 | 1007.4 |
| 20260505204008 | 73 | 257 | 7.0 | 20.0 | 0.00 | 0.00 | 0.00 | 40 | 1007.6 |
| 20260505203507 | 74 | 192 | 7.0 | 21.0 | 0.00 | 0.00 | 0.00 | 39 | 1007.7 |
| 20260505203008 | 74 | 155 | 10.0 | 21.0 | 0.00 | 0.00 | 0.00 | 40 | 1007.7 |
| 20260505202506 | 75 | 202 | 4.0 | 19.0 | 0.00 | 0.00 | 0.00 | 41 | 1007.4 |
| 20260505202004 | 75 | 190 | 11.0 | 27.0 | 0.00 | 0.00 | 0.00 | 39 | 1007.5 |
| 20260505201002 | 75 | 186 | 8.0 | 19.0 | 0.00 | 0.00 | 0.00 | 37 | 1007.6 |
| 20260505200503 | 75 | 187 | 6.0 | 29.0 | 0.00 | 0.00 | 0.00 | 39 | 1007.5 |
| 20260505200002 | 74 | 260 | 4.0 | 29.0 | 0.00 | 0.00 | 0.00 | 39 | 1007.7 |
| 20260505195502 | 74 | 192 | 6.0 | 21.0 | 0.00 | 0.00 | 0.00 | 38 | 1007.8 |
| 20260505195002 | 74 | 199 | 3.0 | 20.0 | 0.00 | 0.00 | 0.00 | 40 | 1007.5 |
| 20260505194502 | 75 | 213 | 10.0 | 20.0 | 0.00 | 0.00 | 0.00 | 38 | 1008.1 |
| 20260505193954 | 75 | 171 | 11.0 | 19.0 | 0.00 | 0.00 | 0.00 | 38 | 1008.1 |
| 20260505193446 | 76 | 239 | 9.0 | 21.0 | 0.00 | 0.00 | 0.00 | 39 | 1008.1 |
| 20260505192945 | 75 | 180 | 12.0 | 22.0 | 0.00 | 0.00 | 0.00 | 37 | 1008.0 |
| 20260505192445 | 75 | 155 | 6.0 | 22.0 | 0.00 | 0.00 | 0.00 | 38 | 1007.8 |
| 20260505190944 | 75 | 220 | 7.0 | 27.0 | 0.00 | 0.00 | 0.00 | 38 | 1008.2 |
| 20260505190443 | 75 | 220 | 8.0 | 30.0 | 0.00 | 0.00 | 0.00 | 36 | 1008.3 |
| 20260505185941 | 75 | 187 | 9.0 | 30.0 | 0.00 | 0.00 | 0.00 | 36 | 1008.5 |
| 20260505185439 | 75 | 236 | 10.0 | 25.0 | 0.00 | 0.00 | 0.00 | 36 | 1008.6 |
| 20260505184939 | 75 | 218 | 12.0 | 31.0 | 0.00 | 0.00 | 0.00 | 35 | 1008.6 |
| 20260505184438 | 75 | 198 | 7.0 | 31.0 | 0.00 | 0.00 | 0.00 | 37 | 1008.8 |
| 20260505183936 | 75 | 196 | 7.0 | 28.0 | 0.00 | 0.00 | 0.00 | 36 | 1008.6 |
| 20260505182930 | 75 | 172 | 10.0 | 35.0 | 0.00 | 0.00 | 0.00 | 34 | 1008.7 |
| 20260505182430 | 75 | 191 | 8.0 | 35.0 | 0.00 | 0.00 | 0.00 | 36 | 1009.1 |
| 20260505181932 | 75 | 173 | 10.0 | 24.0 | 0.00 | 0.00 | 0.00 | 34 | 1008.9 |
| 20260505181430 | 74 | 177 | 15.0 | 23.0 | 0.00 | 0.00 | 0.00 | 34 | 1009.0 |
| 20260505180931 | 75 | 187 | 11.0 | 28.0 | 0.00 | 0.00 | 0.00 | 34 | 1009.1 |
| 20260505180430 | 74 | 165 | 11.0 | 28.0 | 0.00 | 0.00 | 0.00 | 34 | 1009.0 |
| 20260505175928 | 75 | 223 | 3.0 | 21.0 | 0.00 | 0.00 | 0.00 | 37 | 1009.2 |
| 20260505175426 | 75 | 259 | 6.0 | 21.0 | 0.00 | 0.00 | 0.00 | 35 | 1009.2 |
| 20260505173926 | 75 | 232 | 11.0 | 22.0 | 0.00 | 0.00 | 0.00 | 33 | 1009.6 |
| 20260505172427 | 74 | 180 | 6.0 | 21.0 | 0.00 | 0.00 | 0.00 | 33 | 1009.7 |